Regional Weather Roundup
Issued by NWS

Home | Current Version | Previous Version | Text Only | Print | Product List | Glossary On
Versions: 1 2 3 4 5 6 7 8 9 10 11 12 13 14 15 16 17 18 19 20 21 22 23 24 25 26 27 28 29 30 31 32 33 34 35 36 37 38 39 40 41 42 43 44 45 46 47 48 49 50
000
ASUS44 KMEG 010800
RWRTN
TENNESSEE HOURLY STATE WEATHER ROUNDUP
NATIONAL WEATHER SERVICE MEMPHIS TN
300 AM CDT WED JUN 01 2016

TNZ002-004-019-021-049-052-054-088>092-010900-
WEST TENNESSEE

CITY           SKY/WX    TMP DP  RH WIND       PRES   REMARKS
MEMPHIS INTL   PTCLDY    74  68  81 CALM      29.91F
NWS MEMPHIS      N/A     70 N/A N/A MISG        N/A
JACKSON        CLEAR     65  64  97 CALM      29.93S
DYERSBURG      CLEAR     70  66  88 CALM      29.92S
UNION CITY     CLEAR     68  68 100 CALM      29.91S
PARIS          CLEAR     64  63  94 CALM      29.94S
LEXINGTON      MOCLDY    64  64 100 CALM      29.93S
$$

TNZ008-025-027-028-033-062-065-066-010900-
NORTH MIDDLE TENNESSEE

CITY           SKY/WX    TMP DP  RH WIND       PRES   REMARKS
NASHVILLE      CLOUDY    69  63  81 CALM      29.95S
CLARKSVILLE    CLOUDY    68  65  90 CALM      29.94F
COOKEVILLE     PTCLDY    66  66 100 CALM      29.96S
CROSSVILLE     CLOUDY    66  62  87 CALM      30.02R
$$

TNZ061-075-076-078-094-096-097-010900-
SOUTH MIDDLE TENNESSEE

CITY           SKY/WX    TMP DP  RH WIND       PRES   REMARKS
TULLAHOMA      CLEAR     64  64 100 CALM      29.98S
WINCHESTER     CLEAR     64  61  88 CALM      29.97F
MCMINNVILLE    CLEAR     66  66 100 CALM      29.97S
COLUMBIA       CLEAR    N/A N/A N/A CALM      29.94S
SHELBYVILLE    CLEAR     68  64  88 CALM      29.97S
$$

TNZ017-018-042-046-047-010900-
NORTHEAST TENNESSEE

CITY           SKY/WX    TMP DP  RH WIND       PRES   REMARKS
TRI CITIES     PTCLDY    63  60  90 CALM      30.02S
$$

TNZ012-013-036-069-073-074-010900-
CENTRAL EAST TENNESSEE

CITY           SKY/WX    TMP DP  RH WIND       PRES   REMARKS
KNOXVILLE      CLEAR     68  64  87 CALM      29.97R
OAK RIDGE      CLEAR     67  62  84 CALM      29.99R
GATLINBURG     CLEAR     61  61 100 CALM      29.98R
$$

TNZ083-085-099-010900-
SOUTHEAST TENNESSEE

CITY           SKY/WX    TMP DP  RH WIND       PRES   REMARKS
CHATTANOOGA    CLEAR     72  62  71 CALM      29.97R
$$

SKY/WX REPORTED AS FAIR MEANS FEW OR NO CLOUDS BELOW
12 THOUSAND FEET.




USA.gov is the U.S. government's official web portal to all federal, state and local government web resources and services.